Weather History for Mayport NS, FL

Change the Weather History Date:

Wednesday, November 14, 2012

  Actual Average Record
Temperature  
Mean Temperature 62 °F -  
Max Temperature 64 °F 70 °F 84 °F (1999)
Min Temperature 60 °F 56 °F 46 °F (2003)
Degree Days  
Heating Degree Days 3    
Growing Degree Days 12 (Base 50)    
Moisture  
Dew Point 60 °F    
Average Humidity 91    
Maximum Humidity 100    
Minimum Humidity 77    
Precipitation  
Precipitation 0.03 in - - ()
Sea Level Pressure  
Sea Level Pressure 30.20 in    
Wind  
Wind Speed 17 mph (NNE)    
Max Wind Speed 21 mph    
Max Gust Speed 30 mph    
Visibility 4 miles    
Events Rain    
Averages and records for this station are not official NWS values.
T = Trace of Precipitation, MM = Missing Value Source: NWS Daily Summary

Daily Weather History Graph

Daily Weather History Graph

Search for Another Location

Airport:

Trip Planner

Search our weather history database for the weather conditions in past years. The results will help you decide how hot, cold, wet, or windy it might be!

Date:

Astronomy

Nov. 14, 2012 Rise Set
Actual Time 6:51 AM EST 5:29 PM EST
Civil Twilight 6:25 AM EST 5:54 PM EST
Nautical Twilight 5:56 AM EST 6:23 PM EST
Astronomical Twilight 5:28 AM EST 6:52 PM EST
Moon 7:35 AM EST (11/14) 6:20 PM EST (11/14)
Length of Visible Light 11h 28m
Length of Day
10h 38m
New Moon, 1% of the Moon is Illuminated
Nov 14
New Moon
Nov 20
First Quarter
Nov 28
Full
Dec 6
Last Quarter
Dec 13
New

Hourly Weather History & Observations

Time (EST) Temp. Dew Point Humidity Pressure Visibility Wind Dir Wind Speed Gust Speed Precip Events Conditions
12:52 AM 64.0 °F 57.9 °F 80% 30.18 in 7.0 mi NNE 17.3 mph 24.2 mph N/A   Overcast
1:52 AM 63.0 °F 57.0 °F 81% 30.18 in 7.0 mi NNE 16.1 mph 24.2 mph N/A   Overcast
2:52 AM 63.0 °F 57.0 °F 81% 30.17 in 7.0 mi North 13.8 mph 24.2 mph N/A   Overcast
3:52 AM 63.0 °F 57.9 °F 84% 30.19 in 5.0 mi North 15.0 mph 24.2 mph N/A   Haze
4:52 AM 63.0 °F 57.9 °F 84% 30.19 in 5.0 mi NNE 17.3 mph 24.2 mph N/A   Haze
5:52 AM 64.0 °F 57.9 °F 80% 30.19 in 6.0 mi NNE 15.0 mph - 0.00 in   Haze
6:01 AM 64.4 °F 57.2 °F 77% 30.20 in 4.0 mi NNE 12.7 mph 26.5 mph N/A   Overcast
6:52 AM 64.9 °F 61.3 °F 88% 30.21 in 6.0 mi NNE 17.3 mph - N/A   Overcast
7:52 AM 64.0 °F 59.7 °F 86% 30.22 in 6.0 mi NNE 15.0 mph 25.3 mph N/A   Overcast
8:52 AM 64.0 °F 62.1 °F 93% 30.25 in 3.0 mi NNE 17.3 mph 28.8 mph 0.00 in Rain Light Rain
9:32 AM 64.4 °F 62.6 °F 94% 30.25 in 9.0 mi NNE 18.4 mph 28.8 mph 0.00 in   Overcast
9:52 AM 64.0 °F 62.1 °F 93% 30.25 in 8.0 mi NNE 20.7 mph 26.5 mph 0.00 in   Overcast
10:01 AM 64.4 °F 57.2 °F 77% 30.24 in 7.0 mi NNE 20.7 mph 27.6 mph N/A   Overcast
10:52 AM 64.0 °F 61.0 °F 90% 30.25 in 10.0 mi North 16.1 mph 24.2 mph N/A   Overcast
11:52 AM 64.0 °F 61.0 °F 90% 30.24 in 9.0 mi North 16.1 mph 23.0 mph N/A   Overcast
12:52 PM 63.0 °F 61.0 °F 93% 30.22 in 9.0 mi NNE 19.6 mph 27.6 mph N/A   Overcast
1:52 PM 63.0 °F 60.1 °F 90% 30.20 in 4.0 mi NNE 16.1 mph 29.9 mph N/A   Overcast
2:52 PM 62.1 °F 60.1 °F 93% 30.19 in 4.0 mi NNE 18.4 mph 27.6 mph N/A   Overcast
3:13 PM 62.6 °F 60.8 °F 94% 30.20 in 1.5 mi North 13.8 mph 24.2 mph N/A   Overcast
3:52 PM 62.1 °F 60.1 °F 93% 30.19 in 1.0 mi NNE 20.7 mph 26.5 mph N/A   Overcast
4:52 PM 61.0 °F 60.1 °F 97% 30.19 in 0.8 mi NNE 15.0 mph 26.5 mph N/A   Overcast
5:52 PM 61.0 °F 60.1 °F 97% 30.20 in 0.8 mi NNE 19.6 mph 27.6 mph N/A   Overcast
6:52 PM 61.0 °F 61.0 °F 100% 30.19 in 0.8 mi NNE 20.7 mph 25.3 mph N/A   Overcast
7:52 PM 61.0 °F 61.0 °F 100% 30.19 in 1.5 mi NNE 18.4 mph 26.5 mph N/A   Overcast
8:52 PM 61.0 °F 61.0 °F 100% 30.19 in 1.5 mi North 13.8 mph 26.5 mph N/A   Overcast
9:52 PM 62.1 °F 61.0 °F 96% 30.20 in 1.0 mi North 18.4 mph 25.3 mph 0.00 in Rain Light Rain
10:37 PM 60.8 °F 60.8 °F 100% 30.20 in 0.5 mi North 11.5 mph 23.0 mph 0.02 in Rain Light Rain
10:52 PM 61.0 °F 60.1 °F 97% 30.19 in 0.8 mi North 13.8 mph 24.2 mph 0.02 in Rain Light Rain
11:33 PM 60.8 °F 60.8 °F 100% 30.17 in 1.0 mi North 13.8 mph 24.2 mph 0.01 in   Overcast
11:52 PM 61.0 °F 60.1 °F 97% 30.17 in 1.0 mi North 16.1 mph 23.0 mph 0.01 in   Overcast